Hourly Data Report for October 01, 2017

All times are specified in Local Standard Time (LST). Add 1 hour to adjust for Daylight Saving Time where and when it is observed.

EAR FALLS (AUT)
ONTARIO

50°37'50.000" N
93°13'17.000" W
362.60 m
6012199
71295
XEA

Download Data

Hourly Data (October 2017)
Hourly Data Report for October 1, 2017
Temp Definition
°C
Dew Point Temp Definition
°C
Rel Hum Definition
%
Wind Dir Definition
10's deg

Wind Spd Definition
km/h
Visibility Definition
km
Stn Press Definition
kPa
Hmdx Definition


Wind Chill Definition


Weather Definition


TIME
00:00 12.3 9.8 85 13 5   97.30     LegendNANA
01:00 12.5 10.1 86 12 3   97.26     LegendNANA
02:00 12.4 10.3 87 10 5   97.19     LegendNANA
03:00 11.8 10.2 90 11 5   97.15     LegendNANA
04:00 11.7 10.4 92 10 6   97.08     LegendNANA
05:00 11.9 10.7 93 10 8   97.02     LegendNANA
06:00 12.0 10.8 92 10 7   96.96     LegendNANA
07:00 12.1 10.8 92 11 7   96.91     LegendNANA
08:00 12.6 10.9 89 10 6   96.92     LegendNANA
09:00 13.7 11.2 84 13 8   96.91     LegendNANA
10:00 14.0 10.9 82 13 11   96.91     LegendNANA
11:00 14.3 11.2 81 13 10   96.89     LegendNANA
12:00 14.5 11.3 81 13 9   96.84     LegendNANA
13:00 14.4 11.5 83 12 9   96.80     LegendNANA
14:00 13.3 12.1 93 11 14   96.72     LegendNANA
15:00 13.2 12.3 94 10 13   96.64     LegendNANA
16:00 13.1 12.2 94 12 16   96.57     LegendNANA
17:00 13.1 12.2 95 12 14   96.58     LegendNANA
18:00 12.2 11.3 94 13 12   96.59     LegendNANA
19:00 12.3 11.4 95 13 11   96.60     LegendNANA
20:00 12.1 11.2 95 13 12   96.60     LegendNANA
21:00 12.1 11.2 94 12 9   96.58     LegendNANA
22:00 11.9 11.0 94 13 9   96.58     LegendNANA
23:00 12.0 11.1 94 10 9   96.56     LegendNANA

Notes on Data Quality.

Legend

  • E = Estimated
  • M = Missing
  • NA = Not Available
  • ‡ = Partner data that is not subject to review by the National Climate Archives
Date modified: